TimeEDT,TemperatureF,Dew PointF,Humidity,Sea Level PressureIn,VisibilityMPH,Wind Direction,Wind SpeedMPH,Gust SpeedMPH,PrecipitationIn,Events,Conditions,WindDirDegrees,DateUTC
12:51 AM,30.9,10.0,42,29.85,10.0,West,6.9,-,N/A,,Clear,260,2013-04-03 04:51:00
1:51 AM,30.0,12.0,47,29.85,10.0,West,5.8,-,N/A,,Clear,270,2013-04-03 05:51:00
2:51 AM,30.0,12.0,47,29.85,10.0,West,8.1,-,N/A,,Clear,260,2013-04-03 06:51:00
3:51 AM,28.9,9.0,43,29.85,10.0,West,9.2,-,N/A,,Clear,270,2013-04-03 07:51:00
4:51 AM,28.9,8.1,41,29.86,10.0,Variable,4.6,-,N/A,,Clear,0,2013-04-03 08:51:00
5:51 AM,28.0,8.1,43,29.87,10.0,West,8.1,-,N/A,,Clear,260,2013-04-03 09:51:00
6:51 AM,28.0,8.1,43,29.89,10.0,West,6.9,-,N/A,,Clear,260,2013-04-03 10:51:00
7:51 AM,30.0,8.1,40,29.91,10.0,West,10.4,20.7,N/A,,Clear,270,2013-04-03 11:51:00
8:51 AM,32.0,8.1,37,29.90,10.0,West,9.2,25.3,N/A,,Clear,280,2013-04-03 12:51:00
9:51 AM,33.1,7.0,34,29.90,10.0,WNW,12.7,21.9,N/A,,Clear,290,2013-04-03 13:51:00
10:51 AM,34.0,7.0,32,29.89,-9999.0,West,9.2,26.5,N/A,,Clear,280,2013-04-03 14:51:00
11:51 AM,39.0,8.1,28,29.88,10.0,West,12.7,23.0,N/A,,Unknown,280,2013-04-03 15:51:00
12:51 PM,39.9,7.0,26,29.88,10.0,West,12.7,20.7,N/A,,Clear,280,2013-04-03 16:51:00
1:51 PM,42.1,5.0,22,29.88,10.0,West,17.3,29.9,N/A,,Clear,280,2013-04-03 17:51:00
2:51 PM,43.0,5.0,21,29.88,10.0,West,15.0,29.9,N/A,,Clear,280,2013-04-03 18:51:00
3:51 PM,43.0,3.0,19,29.88,10.0,WNW,16.1,32.2,N/A,,Clear,300,2013-04-03 19:51:00
4:51 PM,44.1,1.9,17,29.89,10.0,WNW,20.7,31.1,N/A,,Clear,290,2013-04-03 20:51:00
5:51 PM,43.0,3.0,19,29.90,10.0,NW,17.3,28.8,N/A,,Clear,310,2013-04-03 21:51:00
6:51 PM,41.0,3.0,21,29.93,10.0,West,10.4,31.1,N/A,,Clear,280,2013-04-03 22:51:00
7:51 PM,39.0,5.0,24,29.97,10.0,WNW,12.7,18.4,N/A,,Clear,290,2013-04-03 23:51:00
8:51 PM,37.9,7.0,28,30.02,10.0,WNW,13.8,25.3,N/A,,Clear,300,2013-04-04 00:51:00
9:51 PM,36.0,10.0,34,30.04,10.0,NW,15.0,25.3,N/A,,Clear,310,2013-04-04 01:51:00
11:51 PM,35.1,14.0,42,30.07,10.0,NW,27.6,39.1,N/A,,Clear,310,2013-04-04 03:51:00